Location: Unspecified
(33.6682°S, 0.0000°E)
Time: 16:20:11
(UTC+00:00)

Vanguard 2 Rocket - Pass Details

Date: 25 June 2019
Orbit: 554 x 3326 km, 32.9° (Epoch: 16 July)

Event Time Altitude Azimuth Distance (km) Brightness Sun altitude
Rises 12:49:13 0° 259° (WSW) 5,248 10.8 31.9°
Reaches altitude 10° 12:53:27 10° 262° (W) 3,781 10.2 31.7°
Maximum altitude 13:02:04 54° 336° (NNW) 1,215 9.1 31.2°
Drops below altitude 10° 13:07:10 10° 53° (NE) 2,275 9.3 30.9°
Sets 13:09:10 0° 58° (ENE) 3,025 9.8 30.8°
